Вернуться в каталог

SPACEMOBILE-013

АктивенVLEO
NORAD 100240·PAYLOAD·🇺🇸 United States

Запущен Aug 5, 2026 с Cape Canaveral Space Force Station

Loading…

Ближайшие Пролёты (ближайшие 24 часа)

TLE

СвежийSource: Space-Track

Эпоха: Sep 14, 2026, 09:59 UTC

1 A0240U 26179A   26257.41664680  .00001237  00000-0  85909-4 0  9996
2 A0240  52.9960 145.9509 0007350  91.1449 269.0384 15.13117679  6071

Отслеживайте SPACEMOBILE-013 в реальном времени с AllMySat

Download on the App Store